カタログに戻る

CANX-2

運用中科学SSO
NORAD 32790·PAYLOAD·🇨🇦 Canada

打ち上げ Apr 28, 2008 から Satish Dhawan Space Centre

Loading…

次のパス (今後24時間)

TLE

最新Source: Space-Track

元期: Sep 14, 2026, 09:27 UTC

1 32790U 08021H   26257.39384319  .00002223  00000-0  15627-3 0  9997
2 32790  97.8739 238.9883 0011918 100.7148 259.5421 15.06142392998230

AllMySatでCANX-2をリアルタイム追跡

Download on the App Store